Regional Weather Roundup
Issued by NWS Midland/Odessa, TX

Skip options and go directly to product.
Home | Oldest Version | Next Version | Current Version | All | Text Only | Save Text | Print | Product List | Glossary On

Skip product version selection by date and time.   
010
ASUS44 KMAF 260302
RWRMAF
MIDLAND AREA WEATHER ROUNDUP
NATIONAL WEATHER SERVICE MIDLAND TX
900 PM CST TUE NOV 25 2014

...IN SOUTHWEST TEXAS AND SOUTHEAST NEW MEXICO...

CITY           SKY/WX    TMP DP  RH WIND       PRES   REMARKS
ALPINE         CLEAR     46   8  21 W16G23    30.32R WCI  39
ANDREWS        FAIR      47  12  24 W13G18    30.12S
ARTESIA        NOT AVBL
BIG SPRING     CLEAR     46  16  30 S12       30.14S
CARLSBAD       CLEAR     52   7  16 W18       30.14S
DRYDEN           N/A     51  16  24 SW12      30.21F
FORT STOCKTON  CLEAR     45  11  25 SW14      30.20F WCI  38
GUAD PASS      NOT AVBL
HOBBS          CLEAR     41  10  28 SW8       30.14R WCI  36
MARFA          PTCLDY    34   9  35 S8        30.30F WCI  27
MIDLAND AIRPK  CLEAR     49  15  25 SW12      30.14S
MIDLAND INTL   CLEAR     48  14  25 SW12      30.13S
ODESSA         CLEAR     49  10  20 SW15      30.14S
PECOS          CLEAR     46  11  24 SW9       30.18F
PRESIDIO       FAIR      50  15  24 SW5       30.30S
SEMINOLE       CLEAR     44  13  28 W12       30.12S WCI  38
SNYDER         CLEAR     42  22  46 S8        30.12S WCI  36
WINK           CLEAR     48  10  21 SW12      30.15F
$$
...OTHER STATIONS IN TEXAS...

CITY           SKY/WX    TMP DP  RH WIND       PRES   REMARKS
ABILENE        CLEAR     45  25  45 S8        30.13S
AMARILLO       CLEAR     48  14  25 W13       29.98S
AUSTIN         CLEAR     40  35  83 CALM      30.22S
BROWNSVILLE    CLEAR     49  45  86 CALM      30.31R
CORPUS CHRISTI CLEAR     49  44  83 S6        30.28R
DALLAS FTW     PTCLDY    47  29  49 S8        30.13F
DEL RIO        CLEAR     50  31  48 CALM      30.25R
EL PASO        PTCLDY    46   6  19 SW5       30.28S
HOUSTON INT    CLEAR     45  37  73 S3        30.24S
LUBBOCK        CLEAR     47  11  23 SW16      30.04S
SAN ANGELO     CLEAR     44  20  38 S9        30.16F WCI  39
SAN ANTONIO    CLEAR     54  31  41 SW6       30.24R
WACO           CLEAR     40  34  79 S8        30.18F WCI  34
WICHITA FALLS  NOT AVBL
$$
...OTHER LOCATIONS IN NEW MEXICO...

CITY           SKY/WX    TMP DP  RH WIND       PRES   REMARKS
ALAMAGORDO     PTCLDY    41   0  17 MISG      30.27F
ALBUQUERQUE    PTCLDY    44   5  20 NW9       30.28R WCI  39
CANNON AFB     CLEAR     47   9  21 W21G26    30.05R WCI  39
CLOVIS         CLEAR     46   9  21 W22G28    30.04R WCI  38
HOLLOMAN AFB   PTCLDY    37   4  25 NE8       30.27S WCI  30
ROSWELL        CLEAR     45  12  26 S8        30.12S
RUIDOSO        PTCLDY    41   5  22 NW18G26   30.23R WCI  32
SANTA FE       CLEAR     32   5  32 N9        30.24R WCI  24
TRUTH OR CONSE CLEAR     44   2  17 SW5       30.27R
TUCUMCARI      CLEAR     47  15  27 W17       30.01R
$$

USA.gov is the U.S. government's official web portal to all federal, state and local government web resources and services.